Location: Crescent
(42.8242°N, 73.7329°W)
Time: 00:38:21
(UTC+00:00)

Explorer 7 - Pass Details

Date: 21 February 2026
Orbit: 430 x 541 km, 50.2° (Epoch: 10 March)

Event Time Altitude Azimuth Distance (km) Brightness Sun altitude
Rises 18:13:53 0° 226° (SW) 2,390 10.9 34.8°
Reaches altitude 10° 18:15:59 10° 221° (SW) 1,533 10.3 34.6°
Maximum altitude 18:19:21 53° 144° (SE) 549 7.7 34.4°
Drops below altitude 10° 18:22:49 10° 67° (ENE) 1,582 8.9 34.2°
Sets 18:25:02 0° 62° (ENE) 2,476 9.8 34.0°
